Weather History for Ann Arbor, MI

Change the Weather History Date:

Thursday, October 31, 2013

  Actual Average Record
Temperature  
Mean Temperature 58 °F -  
Max Temperature 63 °F 54 °F 72 °F (2003)
Min Temperature 53 °F 34 °F 23 °F (2002)
Degree Days  
Heating Degree Days 7    
Growing Degree Days 8 (Base 50)    
Moisture  
Dew Point 57 °F    
Average Humidity 93    
Maximum Humidity 100    
Minimum Humidity 88    
Precipitation  
Precipitation 1.34 in - - ()
Sea Level Pressure  
Sea Level Pressure 29.65 in    
Wind  
Wind Speed 9 mph (SSW)    
Max Wind Speed 20 mph    
Max Gust Speed 29 mph    
Visibility 4 miles    
Events Rain , Thunderstorm    
Averages and records for this station are not official NWS values.
T = Trace of Precipitation, MM = Missing Value Source: NWS Daily Summary

Daily Weather History Graph

Daily Weather History Graph

Search for Another Location

Airport:

Trip Planner

Search our weather history database for the weather conditions in past years. The results will help you decide how hot, cold, wet, or windy it might be!

Date:

Astronomy

Oct. 31, 2013 Rise Set
Actual Time 8:07 AM EDT 6:29 PM EDT
Civil Twilight 7:37 AM EDT 6:58 PM EDT
Nautical Twilight 7:04 AM EDT 7:31 PM EDT
Astronomical Twilight 6:32 AM EDT 8:04 PM EDT
Moon 4:52 AM EDT (10/31) 4:49 PM EDT (10/31)
Length of Visible Light 11h 20m
Length of Day
10h 22m
Waning Crescent, 10% of the Moon is Illuminated
Oct 31
Waning Crescent
Nov 3
New
Nov 10
First Quarter
Nov 17
Full
Nov 25
Last Quarter

Hourly Weather History & Observations

Time (EDT) Temp. Dew Point Humidity Pressure Visibility Wind Dir Wind Speed Gust Speed Precip Events Conditions
12:07 AM 53.6 °F 51.8 °F 94% 29.95 in 2.5 mi SE 4.6 mph - 0.03 in Rain Rain
12:22 AM 53.6 °F 51.8 °F 94% 29.96 in 2.0 mi South 8.1 mph - 0.08 in Rain Light Rain
12:26 AM 53.6 °F 51.8 °F 94% 29.95 in 1.8 mi South 4.6 mph - 0.12 in Rain Heavy Rain
12:31 AM 53.6 °F 53.6 °F 100% 29.94 in 1.2 mi Calm Calm - 0.18 in Rain Heavy Rain
12:41 AM 53.6 °F 53.6 °F 100% 29.93 in 1.5 mi SSE 4.6 mph - 0.23 in Rain Rain
12:45 AM 53.6 °F 53.6 °F 100% 29.93 in 1.8 mi SSE 5.8 mph - 0.24 in Rain , Thunderstorm Rain
12:53 AM 54.0 °F 53.1 °F 97% 29.94 in 1.8 mi SSW 4.6 mph - 0.26 in Rain , Thunderstorm Rain
12:59 AM 53.6 °F 53.6 °F 100% 29.92 in 1.2 mi Calm Calm - 0.04 in Rain , Thunderstorm Heavy Rain
1:14 AM 53.6 °F 53.6 °F 100% 29.92 in 1.5 mi South 4.6 mph - 0.11 in Rain Rain
1:22 AM 53.6 °F 53.6 °F 100% 29.91 in 1.0 mi Calm Calm - 0.19 in Rain Heavy Rain
1:28 AM 55.4 °F 53.6 °F 94% 29.91 in 1.5 mi South 3.5 mph - 0.20 in Rain Light Rain
1:41 AM 55.4 °F 53.6 °F 94% 29.90 in 2.5 mi SSE 5.8 mph - 0.21 in Rain Light Rain
1:53 AM 55.0 °F 54.0 °F 96% 29.88 in 2.5 mi SE 3.5 mph - 0.24 in Rain Light Rain
2:05 AM 55.4 °F 55.4 °F 100% 29.87 in 3.0 mi SSE 5.8 mph - 0.00 in Rain Light Rain
2:53 AM 55.9 °F 55.9 °F 100% 29.85 in 2.5 mi South 5.8 mph - 0.02 in Rain Light Rain
3:53 AM 57.9 °F 57.0 °F 97% 29.80 in 2.5 mi South 8.1 mph - 0.03 in Rain Light Rain
4:08 AM 59.0 °F 59.0 °F 100% 29.80 in 3.0 mi SSW 9.2 mph - 0.00 in   Overcast
4:17 AM 60.8 °F 59.0 °F 94% 29.79 in 2.0 mi SSW 9.2 mph 18.4 mph 0.03 in Rain Rain
4:38 AM 60.8 °F 60.8 °F 100% 29.77 in 2.5 mi SSW 9.2 mph - 0.07 in Rain Light Rain
4:46 AM 60.8 °F 60.8 °F 100% 29.77 in 3.0 mi SSW 9.2 mph - 0.07 in Rain Light Rain
4:53 AM 62.1 °F 61.0 °F 96% 29.76 in 3.0 mi SSW 12.7 mph - 0.08 in Rain Light Rain
5:19 AM 62.6 °F 60.8 °F 94% 29.77 in 8.0 mi SW 13.8 mph 23.0 mph 0.00 in   Overcast
5:53 AM 63.0 °F 61.0 °F 93% 29.76 in 7.0 mi SW 12.7 mph 19.6 mph 0.00 in   Overcast
6:53 AM 63.0 °F 61.0 °F 93% 29.75 in 6.0 mi SSW 12.7 mph 17.3 mph 0.01 in Rain Light Rain
7:09 AM 62.6 °F 60.8 °F 94% 29.75 in 5.0 mi SSW 12.7 mph - 0.01 in Rain Light Rain
7:32 AM 62.6 °F 60.8 °F 94% 29.75 in 5.0 mi SW 9.2 mph - 0.03 in Rain Light Rain
7:41 AM 62.6 °F 60.8 °F 94% 29.74 in 6.0 mi SW 9.2 mph 18.4 mph 0.03 in Rain Light Rain
7:53 AM 63.0 °F 61.0 °F 93% 29.73 in 5.0 mi SSW 9.2 mph - 0.04 in Rain Light Rain
8:17 AM 62.6 °F 60.8 °F 94% 29.72 in 6.0 mi SSW 10.4 mph - 0.01 in Rain Light Rain
8:33 AM 62.6 °F 60.8 °F 94% 29.72 in 5.0 mi SSW 6.9 mph - 0.01 in Rain Light Rain
8:53 AM 62.1 °F 60.1 °F 93% 29.72 in 4.0 mi South 10.4 mph - 0.02 in Rain Light Rain
9:53 AM 61.0 °F 59.0 °F 93% 29.70 in 4.0 mi SSW 12.7 mph 20.7 mph 0.03 in Rain Light Rain
10:11 AM 60.8 °F 59.0 °F 94% 29.69 in 5.0 mi SSW 11.5 mph 20.7 mph 0.01 in Rain Light Rain
10:53 AM 61.0 °F 57.9 °F 90% 29.67 in 2.5 mi SSW 19.6 mph 26.5 mph 0.02 in Rain Light Rain
11:06 AM 60.8 °F 57.2 °F 88% 29.67 in 2.5 mi SSW 15.0 mph 26.5 mph 0.01 in Rain Light Rain
11:14 AM 60.8 °F 57.2 °F 88% 29.67 in 2.0 mi SW 17.3 mph 24.2 mph 0.02 in Rain Light Rain
11:22 AM 60.8 °F 57.2 °F 88% 29.66 in 2.5 mi SSW 16.1 mph 26.5 mph 0.03 in Rain Light Rain
11:31 AM 60.8 °F 57.2 °F 88% 29.66 in 4.0 mi SSW 13.8 mph 25.3 mph 0.04 in Rain Light Rain
11:48 AM 60.8 °F 57.2 °F 88% 29.65 in 3.0 mi SSW 17.3 mph 27.6 mph 0.06 in Rain Light Rain
11:53 AM 60.1 °F 57.0 °F 90% 29.65 in 4.0 mi SSW 18.4 mph 27.6 mph 0.06 in Rain Light Rain
12:01 PM 60.8 °F 57.2 °F 88% 29.65 in 4.0 mi SSW 19.6 mph 27.6 mph 0.01 in Rain Light Rain
12:12 PM 60.8 °F 57.2 °F 88% 29.64 in 5.0 mi SSW 18.4 mph 25.3 mph 0.02 in Rain Light Rain
12:53 PM 60.1 °F 57.9 °F 93% 29.63 in 6.0 mi SSW 15.0 mph 25.3 mph 0.06 in Rain Light Rain
1:45 PM 60.8 °F 57.2 °F 88% 29.60 in 3.0 mi SSW 13.8 mph 24.2 mph 0.05 in Rain Light Rain
1:53 PM 60.1 °F 57.9 °F 93% 29.60 in 3.0 mi SSW 13.8 mph 21.9 mph 0.06 in Rain Light Rain
2:00 PM 60.8 °F 57.2 °F 88% 29.59 in 2.5 mi SSW 12.7 mph 21.9 mph 0.02 in Rain Rain
2:13 PM 60.8 °F 57.2 °F 88% 29.58 in 4.0 mi SSW 13.8 mph - 0.03 in Rain Light Rain
2:35 PM 60.8 °F 57.2 °F 88% 29.56 in 6.0 mi SSW 13.8 mph 25.3 mph 0.04 in Rain Light Rain
2:53 PM 60.1 °F 57.9 °F 93% 29.54 in 5.0 mi SSW 12.7 mph 21.9 mph 0.04 in Rain Light Rain
2:57 PM 60.8 °F 57.2 °F 88% 29.54 in 5.0 mi SSW 11.5 mph 21.9 mph 0.00 in Rain Light Rain
3:17 PM 60.8 °F 57.2 °F 88% 29.52 in 4.0 mi SSW 12.7 mph - 0.01 in Rain Light Rain
3:53 PM 60.1 °F 57.9 °F 93% 29.49 in 3.0 mi SSW 12.7 mph 23.0 mph 0.04 in Rain Light Rain
4:25 PM 60.8 °F 57.2 °F 88% 29.47 in 1.8 mi SSW 11.5 mph 18.4 mph 0.04 in Rain Rain
4:35 PM 60.8 °F 57.2 °F 88% 29.46 in 2.5 mi SSW 15.0 mph 24.2 mph 0.05 in Rain Light Rain
4:44 PM 60.8 °F 57.2 °F 88% 29.46 in 3.0 mi South 16.1 mph 24.2 mph 0.06 in Rain Light Rain
4:53 PM 60.1 °F 57.9 °F 93% 29.45 in 2.5 mi SSW 13.8 mph 24.2 mph 0.07 in Rain Light Rain
5:22 PM 59.0 °F 57.2 °F 94% 29.43 in 4.0 mi South 15.0 mph 25.3 mph 0.04 in Rain Light Rain
5:44 PM 59.0 °F 57.2 °F 94% 29.41 in 2.0 mi South 13.8 mph 28.8 mph 0.05 in Rain Light Rain
5:53 PM 59.0 °F 57.9 °F 96% 29.39 in 2.0 mi South 12.7 mph - 0.06 in Rain Light Rain
6:36 PM 59.0 °F 57.2 °F 94% 29.37 in 3.0 mi South 9.2 mph 21.9 mph 0.02 in Rain Light Rain
6:53 PM 59.0 °F 57.9 °F 96% 29.35 in 3.0 mi South 16.1 mph 21.9 mph 0.03 in Rain Light Rain
7:53 PM 60.1 °F 59.0 °F 96% 29.31 in 4.0 mi SSW 17.3 mph 24.2 mph 0.02 in Rain Light Rain
8:53 PM 61.0 °F 59.0 °F 93% 29.26 in 8.0 mi SSW 16.1 mph 25.3 mph 0.02 in Rain Light Rain
9:53 PM 61.0 °F 59.0 °F 93% 29.21 in 10.0 mi SSW 9.2 mph - 0.09 in Rain Light Rain
10:50 PM 62.6 °F 59.0 °F 88% 29.19 in 10.0 mi SSW 11.5 mph - 0.01 in   Overcast
10:53 PM 61.0 °F 59.0 °F 93% 29.18 in 10.0 mi SSW 9.2 mph - 0.01 in   Overcast
11:41 PM 60.8 °F 59.0 °F 94% 29.19 in 10.0 mi SW 11.5 mph - 0.02 in Rain Light Rain
11:53 PM 61.0 °F 59.0 °F 93% 29.17 in 10.0 mi SW 9.2 mph - 0.03 in Rain Light Rain